Weather History for Chihuahua, Mexico

Change the Weather History Date:

Monday, November 25, 2013

  Actual Average Record
Temperature  
Mean Temperature 44 °F -  
Max Temperature 51 °F 62 °F 84 °F (1997)
Min Temperature 35 °F 32 °F 23 °F (1999)
Degree Days  
Heating Degree Days 22    
Moisture  
Dew Point 35 °F    
Average Humidity 82    
Maximum Humidity 100    
Minimum Humidity 54    
Precipitation  
Precipitation 0.00 in - - ()
Sea Level Pressure  
Sea Level Pressure 30.15 in    
Wind  
Wind Speed 4 mph ()    
Max Wind Speed 15 mph    
Max Gust Speed -    
Visibility 4.9 miles    
Events Fog    
Averages and records for this station are not official NWS values.
T = Trace of Precipitation, MM = Missing Value Source: Averaged Metar Reports

Daily Weather History Graph

Daily Weather History Graph

Search for Another Location

Airport:

Trip Planner

Search our weather history database for the weather conditions in past years. The results will help you decide how hot, cold, wet, or windy it might be!

Date:

Astronomy

Nov. 25, 2013 Rise Set
Actual Time 6:34 AM MST 5:06 PM MST
Civil Twilight 6:09 AM MST 5:32 PM MST
Nautical Twilight 5:40 AM MST 6:01 PM MST
Astronomical Twilight 5:12 AM MST 6:29 PM MST
Moon No Moon Rise 12:11 PM MST (11/25)
Length of Visible Light 11h 22m
Length of Day
10h 31m
Waning Gibbous, 50% of the Moon is Illuminated
Nov 25
Waning Gibbous
Nov 25
Last Quarter
Dec 2
New
Dec 9
First Quarter
Dec 17
Full

Hourly Weather History & Observations

Time (MST) Temp. Windchill Dew Point Humidity Pressure Visibility Wind Dir Wind Speed Gust Speed Precip Events Conditions
1:40 AM 38 °F - 36 °F 91% 30.08 in 1 mi North 2.2 mph - - Fog Heavy Fog
4:40 AM 39 °F - 38 °F 92% 30.07 in 1 mi Calm Calm - -   Overcast
4:42 AM 33.8 °F 28.6 °F 33.8 °F 100% 30.20 in 0.6 mi NNE 5.8 mph - N/A Fog Fog
5:40 AM 33.8 °F 28.6 °F 33.8 °F 100% 30.15 in 0.2 mi North 5.8 mph - N/A Fog Fog
6:40 AM 33.8 °F 29.6 °F 33.8 °F 100% 30.16 in 0.2 mi NNW 4.6 mph - N/A Fog Fog
7:20 AM 35.6 °F 32.8 °F 35.6 °F 100% 30.17 in 0.5 mi NNW 3.5 mph - N/A Fog Fog
7:45 AM 37 °F - 36 °F 93% 30.10 in 1 mi NE 2.2 mph - - Fog Partial Fog
7:45 AM 35.6 °F - 35.6 °F 100% 30.22 in 1.0 mi Calm Calm - N/A   Overcast
8:30 AM 35.6 °F - 35.6 °F 100% 30.18 in 2.0 mi Calm Calm - N/A   Overcast
8:40 AM 35.6 °F - 35.6 °F 100% 30.18 in 3.0 mi Calm Calm - N/A   Overcast
9:43 AM 37.4 °F - 37.4 °F 100% 30.18 in 4.0 mi Calm Calm - N/A   Haze
10:38 AM 45 °F - 40 °F 78% 30.09 in 1 mi ENE 2.2 mph - - Fog Partial Fog
10:40 AM 42.8 °F 40.1 °F 37.4 °F 81% 30.21 in 6.0 mi North 4.6 mph - N/A   Mostly Cloudy
11:48 AM 46.4 °F - 35.6 °F 66% 30.14 in 8.0 mi Calm Calm - N/A   Mostly Cloudy
12:40 PM 46.4 °F 41.5 °F 35.6 °F 66% 30.12 in 10.0 mi NNW 10.4 mph - N/A   Scattered Clouds
1:40 PM 48.2 °F - 33.8 °F 58% 30.12 in 10.0 mi North 13.8 mph - N/A   Scattered Clouds
2:40 PM 51.8 °F - 35.6 °F 54% 30.09 in 10.0 mi North 9.2 mph - N/A   Partly Cloudy
3:40 PM 48.2 °F - 33.8 °F 58% 30.11 in 10.0 mi North 15.0 mph - N/A   Scattered Clouds
4:40 PM 46.4 °F 40.7 °F 33.8 °F 62% 30.13 in 10.0 mi NNE 12.7 mph - N/A   Scattered Clouds
5:40 PM 42.8 °F 41.1 °F 35.6 °F 76% 30.17 in 10.0 mi NE 3.5 mph - N/A   Mostly Cloudy
6:40 PM 39.2 °F - 35.6 °F 87% 30.20 in 10.0 mi Calm Calm - N/A   Scattered Clouds
7:40 PM 45 °F - 37 °F 66% 30.08 in 1 mi South 2.2 mph - -   Scattered Clouds
7:40 PM 39.2 °F 32.0 °F 32.0 °F 75% 30.25 in 10.0 mi North 11.5 mph - N/A   Clear
8:40 PM 39.2 °F 33.0 °F 28.4 °F 65% 30.26 in 10.0 mi North 9.2 mph - N/A   Partly Cloudy
10:40 PM 35 °F - 32 °F 83% 30.16 in 1 mi WSW 2.2 mph - -